DW0110 Weather Reports


time (UTC)temp
F
wind
direction
speed
knots
gust
knots
rain 1hr
in
rain 24hr
in
rain mn
in
humidity
%
barometer
mb
20260504050329 52 221 0.0 0.0 0.00 0.00 0.00 62 1008.4
20260504045822 52 221 0.0 0.0 0.00 0.00 0.00 61 1008.4
20260504045356 52 221 0.0 0.0 0.00 0.00 0.00 59 1008.5
20260504044827 52 221 0.0 0.0 0.00 0.00 0.00 61 1008.5
20260504044339 52 221 0.0 0.0 0.00 0.00 0.00 60 1008.4
20260504043830 52 221 0.0 0.0 0.00 0.00 0.00 59 1008.5
20260504043323 52 221 0.0 0.0 0.00 0.00 0.00 58 1008.5
20260504042859 53 221 0.0 0.0 0.00 0.00 0.00 58 1008.5
20260504042331 53 221 0.0 0.0 0.00 0.00 0.00 59 1008.5
20260504041825 53 221 0.0 0.0 0.00 0.00 0.00 58 1008.5
20260504041319 53 221 0.0 0.0 0.00 0.00 0.00 58 1008.4
20260504040836 53 221 0.0 0.0 0.00 0.00 0.00 57 1008.5
20260504040329 53 221 0.0 0.0 0.00 0.00 0.00 57 1008.4
20260504035823 54 221 0.0 0.0 0.00 0.00 0.00 57 1008.5
20260504035339 54 221 0.0 0.0 0.00 0.00 0.00 58 1008.4
20260504034851 54 221 0.0 0.0 0.00 0.00 0.00 57 1008.4
20260504034323 54 221 0.0 0.0 0.00 0.00 0.00 57 1008.4
20260504033839 54 221 0.0 0.0 0.00 0.00 0.00 57 1008.5
20260504033335 54 221 0.0 0.0 0.00 0.00 0.00 57 1008.4
20260504032828 54 221 0.0 0.0 0.00 0.00 0.00 56 1008.4
20260504032324 54 221 0.0 0.0 0.00 0.00 0.00 57 1008.5
20260504031834 54 221 0.0 0.0 0.00 0.00 0.00 56 1008.5
20260504031328 53 221 0.0 0.0 0.00 0.00 0.00 57 1008.4
20260504030843 53 221 0.0 0.0 0.00 0.00 0.00 58 1008.5
20260504030335 53 221 0.0 0.0 0.00 0.00 0.00 58 1008.5
20260504025832 53 221 0.0 0.0 0.00 0.00 0.00 59 1008.5
20260504025327 53 221 0.0 0.0 0.00 0.00 0.00 59 1008.6
20260504024820 53 221 0.0 0.0 0.00 0.00 0.00 61 1008.6
20260504024337 53 221 0.0 0.0 0.00 0.00 0.00 58 1008.7
20260504023830 53 221 0.0 0.0 0.00 0.00 0.00 58 1008.8
20260504023323 53 221 0.0 0.0 0.00 0.00 0.00 58 1008.8
20260504022839 53 221 0.0 0.0 0.00 0.00 0.00 57 1008.8
20260504022330 53 221 0.0 0.0 0.00 0.00 0.00 59 1008.9
20260504021823 54 221 0.0 0.0 0.00 0.00 0.00 59 1008.9
20260504021335 54 221 0.0 0.0 0.00 0.00 0.00 58 1008.9
20260504020826 54 221 0.0 0.0 0.00 0.00 0.00 57 1008.9
20260504020337 54 221 0.0 0.0 0.00 0.00 0.00 57 1008.8
20260504015830 54 221 0.0 0.0 0.00 0.00 0.00 56 1008.8
20260504015321 54 221 0.0 0.0 0.00 0.00 0.00 58 1008.8
20260504014831 53 221 0.0 0.9 0.00 0.00 0.00 58 1008.7
20260504014322 53 221 0.0 0.9 0.00 0.00 0.00 59 1008.7
20260504013841 53 221 0.0 1.7 0.00 0.00 0.00 60 1008.7
20260504013357 53 221 0.0 1.7 0.00 0.00 0.00 61 1008.8
20260504012829 53 221 0.0 0.0 0.00 0.00 0.00 62 1008.8
20260504012323 53 221 0.0 0.0 0.00 0.00 0.00 64 1009.0
20260504011836 53 221 0.0 0.0 0.00 0.00 0.00 64 1009.1
20260504011330 53 221 0.0 0.0 0.00 0.00 0.00 62 1009.2
20260504010823 53 221 0.0 6.1 0.00 0.00 0.00 63 1009.3
20260504010339 52 221 0.9 6.1 0.00 0.00 0.00 64 1009.1
20260504005832 52 221 0.0 0.9 0.00 0.00 0.00 66 1009.0
20260504005326 52 221 0.0 0.0 0.00 0.00 0.00 68 1009.0
20260504004823 52 221 0.0 4.3 0.00 0.00 0.00 68 1009.0
20260504004337 52 221 0.0 4.3 0.00 0.00 0.00 68 1009.1
20260504003831 52 221 0.0 3.5 0.00 0.00 0.00 68 1009.4
20260504003325 52 221 0.0 2.6 0.00 0.00 0.00 67 1009.5
20260504002838 52 221 0.0 5.2 0.00 0.00 0.00 66 1009.5
20260504002332 53 221 0.9 5.2 0.00 0.00 0.00 66 1009.5
20260504001825 53 221 0.0 7.0 0.00 0.00 0.00 65 1009.4
20260504001321 53 221 0.0 6.1 0.00 0.00 0.00 63 1009.4
20260504000835 53 221 1.7 6.1 0.00 0.00 0.00 62 1009.4
20260504000328 53 221 0.9 6.1 0.00 0.00 0.00 61 1009.3
20260503235823 53 221 0.0 10.4 0.00 0.00 0.00 60 1009.2
20260503235333 54 221 0.9 10.4 0.00 0.00 0.00 59 1009.1
20260503234825 54 221 1.7 8.7 0.00 0.00 0.00 59 1009.1
20260503234319 54 221 0.0 9.6 0.00 0.00 0.00 57 1009.2
20260503233835 55 221 1.7 10.4 0.00 0.00 0.00 56 1009.2
20260503233329 55 220 4.3 10.4 0.00 0.00 0.00 55 1009.3
20260503232848 55 219 0.0 9.6 0.00 0.00 0.00 53 1009.1
20260503232322 55 219 0.9 9.6 0.00 0.00 0.00 52 1009.1
20260503231834 56 218 0.0 6.1 0.00 0.00 0.00 51 1009.0
20260503231328 56 218 0.9 4.3 0.00 0.00 0.00 51 1008.8
20260503230825 56 218 0.0 3.5 0.00 0.00 0.00 49 1008.8
20260503230338 56 218 0.9 8.7 0.00 0.00 0.00 49 1008.7
20260503225831 56 218 0.0 9.6 0.00 0.00 0.00 48 1008.6
20260503225325 56 217 0.9 7.0 0.00 0.00 0.00 48 1008.5
20260503224819 56 217 0.0 4.3 0.00 0.00 0.00 47 1008.6
20260503224335 56 217 0.0 4.3 0.00 0.00 0.00 46 1008.6
20260503223829 56 217 0.0 3.5 0.00 0.00 0.00 46 1008.6
20260503223345 56 217 0.0 3.5 0.00 0.00 0.00 47 1008.5
20260503222838 56 217 0.0 0.0 0.00 0.00 0.00 48 1008.4
20260503222332 56 217 0.0 1.7 0.00 0.00 0.00 48 1008.4
20260503221828 56 217 0.0 3.5 0.00 0.00 0.00 46 1008.5
20260503221337 56 217 0.0 3.5 0.00 0.00 0.00 47 1008.5
20260503220829 57 217 0.0 5.2 0.00 0.00 0.00 47 1008.8
20260503220323 57 217 0.0 5.2 0.00 0.00 0.00 46 1008.7
20260503215838 57 217 0.0 7.0 0.00 0.00 0.00 46 1008.8
20260503215330 57 217 2.6 7.0 0.00 0.00 0.00 45 1008.9
20260503214825 57 217 0.0 7.0 0.00 0.00 0.00 45 1008.8
20260503214338 57 217 0.0 1.7 0.00 0.00 0.00 46 1008.7
20260503213828 57 217 0.0 7.8 0.00 0.00 0.00 45 1008.8
20260503213323 57 217 2.6 8.7 0.00 0.00 0.00 43 1008.8
20260503212858 57 216 0.9 8.7 0.00 0.00 0.00 45 1008.7
20260503212329 57 216 0.9 5.2 0.00 0.00 0.00 44 1008.5
20260503211823 57 216 0.9 5.2 0.00 0.00 0.00 44 1008.6
20260503211336 57 216 0.9 6.1 0.00 0.00 0.00 42 1008.5
20260503210850 58 216 0.9 8.7 0.00 0.00 0.00 43 1008.6
20260503210322 58 216 0.9 8.7 0.00 0.00 0.00 42 1008.6
20260503205836 58 216 1.7 7.0 0.00 0.00 0.00 42 1008.6
20260503205332 58 215 0.9 6.1 0.00 0.00 0.00 44 1008.6
20260503204825 57 215 0.0 4.3 0.00 0.00 0.00 45 1008.6
20260503204319 57 215 0.0 1.7 0.00 0.00 0.00 42 1008.8
20260503203835 57 215 0.0 4.3 0.00 0.00 0.00 44 1008.8
20260503203329 58 215 0.9 7.8 0.00 0.00 0.00 44 1008.9
20260503202826 57 215 2.6 7.8 0.00 0.00 0.00 43 1008.9
20260503202322 57 215 0.0 7.0 0.00 0.00 0.00 45 1009.0
20260503201839 57 215 0.0 7.0 0.00 0.00 0.00 44 1009.1
20260503201333 57 215 0.0 4.3 0.00 0.00 0.00 43 1009.1
20260503200826 57 215 0.0 4.3 0.00 0.00 0.00 44 1009.2
20260503200342 57 215 0.0 3.5 0.00 0.00 0.00 46 1009.4
20260503195835 56 215 0.0 5.2 0.00 0.00 0.00 46 1009.4
20260503195329 56 215 0.0 5.2 0.00 0.00 0.00 45 1009.5
20260503194822 56 215 0.0 0.9 0.00 0.00 0.00 45 1009.6
20260503194336 56 215 0.0 4.3 0.00 0.00 0.00 45 1009.6
20260503193830 56 215 0.0 4.3 0.00 0.00 0.00 43 1009.8
20260503193323 55 215 0.9 4.3 0.00 0.00 0.00 46 1009.8
20260503192835 55 215 0.0 3.5 0.00 0.00 0.00 45 1010.0
20260503192330 55 215 0.0 7.0 0.00 0.00 0.00 43 1010.2
20260503191846 55 215 1.7 7.0 0.00 0.00 0.00 42 1010.3
20260503191338 56 215 0.0 7.8 0.00 0.00 0.00 43 1010.3
20260503190831 56 215 0.9 7.8 0.00 0.00 0.00 44 1010.4
20260503190329 55 215 0.0 4.3 0.00 0.00 0.00 43 1010.4
20260503185844 55 215 0.9 4.3 0.00 0.00 0.00 45 1010.4
20260503185337 55 215 0.0 7.0 0.00 0.00 0.00 44 1010.5
20260503184828 55 215 0.0 8.7 0.00 0.00 0.00 43 1010.6
20260503184320 55 215 1.7 6.1 0.00 0.00 0.00 43 1010.7
20260503183835 55 215 0.0 3.5 0.00 0.00 0.00 45 1010.8
20260503183329 54 215 0.0 11.3 0.00 0.00 0.00 47 1010.7
20260503182844 54 215 2.6 11.3 0.00 0.00 0.00 44 1010.9
20260503182335 54 214 2.6 8.7 0.00 0.00 0.00 45 1010.9
20260503181826 54 213 1.7 6.1 0.00 0.00 0.00 47 1010.9
20260503181343 54 213 1.7 6.1 0.00 0.00 0.00 49 1010.9
20260503180838 54 213 0.0 6.1 0.00 0.00 0.00 49 1011.0
20260503180332 54 213 0.9 6.1 0.00 0.00 0.00 49 1011.0
20260503175826 54 213 0.0 6.1 0.00 0.00 0.00 49 1011.0
20260503175319 54 213 1.7 10.4 0.00 0.00 0.00 50 1010.9
20260503174836 54 213 0.0 10.4 0.00 0.00 0.00 50 1011.1
20260503174330 54 213 2.6 9.6 0.00 0.00 0.00 50 1011.1
20260503173826 54 213 1.7 6.1 0.00 0.00 0.00 49 1011.0
20260503173319 54 213 0.9 6.1 0.00 0.00 0.00 50 1011.1
20260503172836 54 213 0.0 7.0 0.00 0.00 0.00 50 1011.2
20260503172329 55 213 0.9 10.4 0.00 0.00 0.00 52 1011.3
20260503171823 54 213 0.0 10.4 0.00 0.00 0.00 51 1011.2
20260503171339 54 211 0.9 9.6 0.00 0.00 0.00 52 1011.2
20260503170851 54 211 0.0 7.0 0.00 0.00 0.00 53 1011.3
20260503170344 54 211 0.0 7.0 0.00 0.00 0.00 52 1011.5
20260503150838 49 211 0.0 0.0 0.00 0.00 0.00 58 1012.7
20260503150335 49 211 0.0 3.5 0.00 0.00 0.00 60 1012.8
20260503131325 44 211 0.0 0.0 0.00 0.00 0.00 65 1013.8
20260503130840 43 211 0.0 0.0 0.00 0.00 0.00 66 1013.8
20260503130350 43 211 0.0 0.0 0.00 0.00 0.00 67 1013.8
20260503110828 36 211 0.0 0.0 0.00 0.00 0.00 88 1013.6
20260503110323 36 211 0.0 0.0 0.00 0.00 0.00 88 1013.5
20260503090358 37 211 0.0 0.0 0.00 0.00 0.00 86 1013.1
20260503081327 37 211 0.0 0.0 0.00 0.00 0.00 84 1013.3
20260503080821 37 211 0.0 0.0 0.00 0.00 0.00 84 1013.3
20260503080335 37 211 0.0 0.0 0.00 0.00 0.00 84 1013.3
20260503072818 38 211 0.0 0.0 0.00 0.00 0.00 83 1013.3
20260503072331 38 211 0.0 0.0 0.00 0.00 0.00 83 1013.3
20260503071828 38 211 0.0 0.0 0.00 0.00 0.00 82 1013.3
20260503071321 38 211 0.0 0.0 0.00 0.00 0.00 82 1013.3
20260503070857 39 211 0.0 0.0 0.00 0.00 0.00 82 1013.3
20260503070330 39 211 0.0 0.0 0.00 0.00 0.00 82 1013.3